User: anonymous   Login
Location: Unspecified
(0.0000°N, 0.0000°E)
Time: 14:37:13
(UTC+00:00)
Language:

Tiungsat 1 - Orbit

View from above orbital plane
View from above orbital plane
View from above satellite
View from above satellite

Ground track
Ground track

The orbit data is extracted from the following two-line orbital elements,

1 26548U 00057D   17147.94369822 +.00000052 +00000-0 +22150-4 0  9991
2 26548 064.5521 063.8347 0035662 228.6951 131.1087 14.89001194902881
Epoch (UTC): 27 May 2017 22:38:55
Eccentricity: 0.0035662
inclination: 64.5521°
perigee height: 576 km
apogee height: 626 km
right ascension of ascending node: 63.8347°
argument of perigee: 228.6951°
revolutions per day: 14.89001194
mean anomaly at epoch: 131.1087°
orbit number at epoch: 90288

The dashed part of the orbit path shows where the satellite is in the earth's shadow,  

DLR